Regional Weather Roundup
Issued by NWS Cleveland, OH

Home | Current Version | Previous Version | Text Only | Print | Product List | Glossary Off
Versions: 1 2 3 4 5 6 7 8 9 10 11 12 13 14 15 16 17 18 19 20 21 22 23 24 25 26 27 28 29 30 31 32 33 34 35 36 37 38 39 40 41 42 43 44 45 46 47 48 49 50

000
ASUS41 KCLE 111110
RWRCLE
OHIO REGIONAL WEATHER ROUNDUP
NATIONAL WEATHER SERVICE WILMINGTON, OH
600 AM EST MON DEC 11 2017

NOTE: "FAIR" INDICATES FEW OR NO CLOUDS BELOW 12,000 FEET WITH NO
SIGNIFICANT WEATHER AND/OR OBSTRUCTIONS TO VISIBILITY.

OHZ001>008-015>018-024>027-034-035-043-044-111200-
   NORTHWEST OHIO

CITY           SKY/WX    TMP DP  RH WIND       PRES   REMARKS
DEFIANCE       CLOUDY    27  21  78 S3        30.03F
FINDLAY        MOCLDY    23  18  81 S5        30.03F WCI  17
TOLEDO EXPRESS CLOUDY    24  22  91 SE3       30.02F
TOLEDO EXEC    CLOUDY    23  19  85 E3        30.05F
LIMA           MOCLDY    25  20  81 S5        30.03F WCI  19
$$

OHZ009>014-019>023-028>033-038-089-111200-
   NORTHEAST OHIO

CITY           SKY/WX    TMP DP  RH WIND       PRES   REMARKS
CLE-HOPKINS    FLURRIES  30  19  63 W7        30.07R WCI  23
CLE-LAKEFRONT  CLOUDY    31  19  61 W10       30.04R WCI  22
CUY CO. ARPT   NOT AVBL
LORAIN-ELYRIA  CLOUDY    27  18  69 W6        30.05R WCI  20
ASHTABULA      CLOUDY    29  21  72 VRB7      30.00R WCI  22
AKRON-CANTON   CLOUDY    29  19  66 W7        30.02R WCI  22
WOOSTER        CLOUDY    27  20  75 W8        30.04R WCI  19
MANSFIELD      FAIR      24  19  81 W6        30.03R WCI  17
YOUNGSTOWN     FLURRIES  29  21  72 SW8       29.99R WCI  21
$$

OHZ042-051>053-060>062-070>072-077>081-111200-
  SOUTHWEST OHIO

CITY           SKY/WX    TMP DP  RH WIND       PRES   REMARKS
CINC-COVINGTON FAIR      22  21  96 CALM      30.08F
CINC-LUNKEN    FAIR      20  18  92 CALM      30.12F
HAMILTON       FAIR      17  15  92 CALM      30.11S
DAYTON         MOCLDY    26  21  81 SW3       30.07R
WRIGHT-PAT AFB CLOUDY    28  21  76 CALM      30.07S
DAYTON GENERAL CLOUDY    24  19  81 S5        30.07S WCI  18
WILMINGTON     CLOUDY    26  23  88 CALM      30.07S
$$

OHZ036-037-039>041-045>050-054>059-063>069-073>076-082>088-111200-
  CENTRAL AND SOUTHEAST OHIO

CITY           SKY/WX    TMP DP  RH WIND       PRES   REMARKS
COLUMBUS       CLOUDY    31  22  69 N6        30.07R WCI  25
OSU AIRPORT    CLOUDY    30  22  72 NW5       30.07R WCI  25
BOLTON FIELD   CLOUDY    30  22  72 CALM      30.07S
RICKENBACK AFB CLOUDY    30  23  75 CALM      30.08S
NEWARK         CLOUDY    31  20  63 W8        30.06S WCI  23
MARION         FAIR      18  13  80 CALM      30.06R
LANCASTER      CLOUDY    30  22  72 CALM      30.08R
ZANESVILLE     CLOUDY    31  20  63 NW6       30.06S WCI  25
NEW PHILLY     CLOUDY    30  20  66 W6        30.06R WCI  24
$$



USA.gov is the U.S. government's official web portal to all federal, state and local government web resources and services.